Location: Flint Hill Observatory
(31.1875°N, 100.5222°W)
Time: 10:26:15
(UTC-05:00)

Daily predictions for brighter satellites

Satellite Brightness Start Highest point End
(mag) Time Altitude Azimuth Time Altitude Azimuth Time Altitude Azimuth
CENTAUR R/B 3.4 20:56:00 10° NNW 21:03:49 53° ENE 21:11:53 10° SE
Meteor 2-10 Rocket 4.4 20:59:47 10° N 21:05:05 37° ENE 21:10:13 10° SE
Cosmos 2263 Rocket 4.5 21:00:34 10° SW 21:05:33 31° WNW 21:10:32 10° N
Cosmos 2181 Rocket 4.1 21:00:30 10° N 21:06:56 77° E 21:13:16 10° S
Okean 1-7 3.0 21:04:52 10° N 21:09:11 84° E 21:13:32 10° S
Cosmos 724 4.5 21:03:46 10° NNW 21:10:00 84° ENE 21:16:12 10° SSE
ISS -3.3 21:07:49 10° SSW 21:10:59 54° SE 21:14:10 10° NE
CZ-2D R/B 3.4 21:07:31 10° SSE 21:11:15 55° ENE 21:14:59 10° N
Cosmos 389 Rocket 4.4 21:10:13 10° NNW 21:13:22 32° W 21:16:31 10° SSW
Centaur D-1A AC-32 3.7 21:04:35 10° WSW 21:13:26 34° S 21:16:47 10° ESE
USA 186 2.2 21:11:21 10° SSE 21:14:15 42° ENE 21:17:19 10° N
Cosmos 2056 Rocket 3.4 21:09:39 10° S 21:14:49 77° ESE 21:19:57 10° NNE
Cosmos 2074 Rocket 4.1 21:10:53 10° S 21:17:03 61° E 21:23:13 10° NNE
Cosmos 1371 Rocket 4.4 21:11:58 10° SSW 21:17:16 71° WNW 21:22:33 10° N
Meteor 2-3 Rocket 4.1 21:14:27 10° SSW 21:20:03 71° W 21:25:39 10° N
OAO 3 Rocket 3.8 21:20:29 10° SW 21:25:05 38° SSE 21:29:40 10° E
ATLAS 2A CENTAUR R/B 1.9 21:22:20 10° WSW 21:26:43 27° S 21:28:06 16° SE
Resurs 01 Rocket 3.8 21:25:09 10° SSW 21:28:51 26° W 21:32:34 10° NW
Cosmos 1674 Rocket 4.4 21:25:44 10° NNE 21:29:44 32° E 21:33:03 13° SE
SL-27 R/B 3.4 21:30:31 10° N 21:33:50 32° ENE 21:35:57 18° SE
Cosmos 1340 Rocket 4.4 21:30:25 10° SSW 21:34:08 38° W 21:37:54 10° N
Sich 1 Rocket 4.0 21:31:44 10° SSE 21:36:05 45° E 21:40:28 10° NNE
Cosmos 1606 4.3 21:33:28 10° NNE 21:36:23 20° ENE 21:37:46 17° ESE
Cosmos 1892 3.2 21:33:24 10° SSW 21:37:10 61° W 21:40:59 10° N
Cosmos 1356 Rocket 4.1 21:33:56 10° SSW 21:38:04 58° W 21:42:17 10° N
PSLV R/B 4.1 21:34:58 10° NW 21:38:15 43° NNE 21:40:36 17° E
Meteosat 1 Rocket2 4.0 21:34:51 10° W 21:40:06 70° S 21:47:26 13° E
SL-08 ROCKET BODY 4.4 21:38:08 10° S 21:44:11 90° W 21:50:10 10° N
CZ-4 DEB 2.6 21:43:16 17° SSE 21:45:37 72° ENE 21:48:47 10° N
GPS 2-05 Rocket1 3.5 21:43:29 10° W 21:47:10 56° NNW 21:50:40 11° ENE
H-2A R/B 3.5 21:44:07 10° S 21:47:42 49° W 21:51:20 10° NNW
Cosmos 1782 3.0 21:43:58 10° N 21:47:55 52° E 21:50:33 19° SSE
Coronas F rocket 3.6 21:46:35 10° SW 21:48:51 25° W 21:51:07 10° NNW
Envisat 3.7 21:46:06 19° SE 21:49:09 37° ENE 21:53:48 10° N
ERBS 2.3 21:45:50 10° NW 21:49:19 88° NE 21:51:07 26° SE
Abrixas rocket 4.0 21:47:49 10° WNW 21:50:43 26° SW 21:52:48 15° S
SEDSat Delta rocket 3.4 21:48:23 10° SW 21:52:30 38° SSE 21:54:13 26° ESE
Cosmos 1939 Rocket 3.2 21:53:45 26° SE 21:55:30 44° ENE 21:59:13 10° N
TIMED 4.5 21:52:37 10° SSW 21:56:58 89° WNW 22:01:21 10° NNE
Cosmos 2341 Rocket 4.3 21:52:34 11° SSE 21:58:22 48° E 22:04:21 10° NNE
Cosmos 1420 Rocket 4.4 21:55:11 13° SSE 21:59:25 39° E 22:04:14 10° NNE
Atlas Centaur 2 0.9 21:55:53 10° W 21:59:28 71° S 22:00:49 35° ESE
Cosmos 1975 Rocket 4.4 21:56:48 10° NNE 22:00:04 21° ENE 22:00:24 20° E
OAO 1 Rocket 4.3 21:58:28 10° WSW 22:03:47 82° SSE 22:08:18 14° ENE
Cosmos 2084 3.9 21:59:58 10° SW 22:03:48 55° WNW 22:07:34 10° NNE
Cosmos 1908 Rocket 3.4 22:00:01 10° S 22:04:22 78° E 22:08:47 10° N
ERS-1 Rocket 2.9 22:02:39 18° SSE 22:06:28 88° E 22:11:32 10° NNW
IUS-26 SRM-1 3.9 22:09:55 10° WSW 22:10:34 16° SW 22:10:34 16° SW
Cosmos 1378 Rocket 3.8 22:07:57 10° N 22:12:07 47° E 22:13:08 39° ESE
ATLAS 5 CENTAUR R/B 2.7 22:06:07 10° NW 22:12:16 66° WSW 22:16:44 21° SSE
Cosmos 407 Rocket 3.4 22:07:15 10° NNW 22:12:33 78° ENE 22:15:21 29° SSE
Cosmos 962 Rocket 4.4 22:07:35 14° S 22:12:53 64° E 22:19:01 10° NNE
H-2A R/B 4.3 22:13:15 10° ENE 22:13:44 10° ENE 22:14:43 10° NE
Meteor 2-6 Rocket 4.4 22:09:19 10° N 22:15:15 81° W 22:19:44 18° S
deb Chang Zheng 4 3.8 22:12:35 10° N 22:17:00 73° WNW 22:21:25 10° SSW
Cosmos 1452 Rocket 3.9 22:12:31 10° SSW 22:17:43 64° WNW 22:22:57 10° N
YAOGAN 6 4.0 22:18:38 24° NE 22:18:38 24° NE 22:20:58 10° NNE
Cosmos 1140 Rocket 4.4 22:13:48 10° N 22:18:15 29° ENE 22:19:08 27° E
Cosmos 1408 2.4 22:18:17 39° S 22:19:35 87° E 22:23:14 10° N
Cosmos 1825 2.2 22:22:40 32° SSW 22:24:20 79° W 22:28:09 10° N
Cosmos 2154 Rocket 4.1 22:18:34 10° S 22:24:47 76° W 22:31:00 10° N
Cosmos 1242 Rocket 4.1 22:22:32 10° NNE 22:24:43 23° NE 22:24:43 23° NE
COSMOS 2406 4.1 22:21:25 10° NW 22:26:50 44° WSW 22:30:54 17° S
Cosmos 1190 Rocket 4.4 22:22:08 10° NNW 22:27:13 58° WSW 22:30:11 24° S
SPOT 1/Viking Rocket 4.3 22:28:03 33° E 22:28:45 34° ENE 22:33:25 10° N
Cosmos 2278 Rocket 2.6 22:23:57 10° SSW 22:29:34 65° WNW 22:35:13 10° NNE
USA 234 3.6 22:23:48 10° ENE 22:29:44 37° SE 22:35:37 10° S
CZ-4B R/B 3.6 22:26:21 10° NNE 22:31:03 46° E 22:31:08 46° ESE
Cosmos 1295 Rocket 4.5 22:29:09 29° SSE 22:32:27 66° E 22:38:40 10° NNE
Cosmos 1184 Rocket 3.0 22:32:43 63° WSW 22:32:55 66° W 22:36:13 10° N
H-2A R/B 2.2 22:32:35 42° S 22:33:55 71° WSW 22:38:11 10° NNW
MetOp-A 4.1 22:34:02 46° SE 22:35:28 65° ENE 22:40:45 10° N
deb Centaur AC-2 4.4 22:32:02 10° W 22:38:05 68° S 22:39:03 55° SE
Meteor 1-14 Rocket 4.2 22:41:16 50° SE 22:42:16 58° E 22:47:46 10° NNE
Cosmos 489 Rocket 4.5 22:39:32 10° N 22:45:42 64° ENE 22:47:05 51° SE
ISS 0.1 22:46:06 10° WNW 22:47:38 13° NNW 22:49:10 10° N
CZ-3C R/B 3.2 22:24:25 10° WSW 22:49:22 39° S 22:50:58 36° SSE
Terra 3.7 22:52:21 17° NE 22:52:21 17° NE 22:54:34 10° NNE
Intercosmos 25 3.7 22:52:28 54° NNW 22:52:28 54° NNW 22:55:02 10° N
Cosmos 2366 rocket 4.0 22:51:57 52° ESE 22:52:40 55° E 22:58:48 10° NNE
CENTAUR R/B 4.4 22:47:24 10° NW 22:54:17 31° WSW 23:00:10 14° SSW
Cosmos 2082 Rocket 3.2 22:49:50 10° N 22:54:50 31° ENE 22:54:52 31° ENE
Cosmos 1850 Rocket 4.3 22:50:37 10° N 22:55:44 51° ENE 22:55:44 51° ENE
SPOT 5 3.3 22:55:02 46° SSW 22:56:27 64° W 23:01:46 10° NNW
Cosmos 1238 Rocket 3.6 22:54:35 10° NNW 22:57:48 45° W 22:57:48 45° W
Cosmos 1954 Rocket 4.3 22:57:25 10° NNW 23:02:34 61° WSW 23:03:20 54° SW
Okean 2 Rocket 4.1 23:02:42 34° WSW 23:03:55 42° W 23:08:07 10° N
Cosmos 2297 4.0 23:00:51 21° SSW 23:04:43 66° WNW 23:10:25 10° NNE
OAO 3 Rocket 3.3 23:03:34 10° W 23:08:12 72° NW 23:08:12 72° NW
Okean 3 4.5 23:04:53 10° NNW 23:08:53 41° W 23:09:00 41° W
NOAA 11 4.0 23:12:15 82° E 23:12:16 82° ENE 23:17:47 10° N
USA 229 DEB 4.4 23:09:16 10° NNW 23:15:55 40° NE 23:16:52 39° ENE
USA 229 4.4 23:09:22 10° NNW 23:16:01 40° NE 23:16:58 38° ENE
Cosmos 1741 Rocket 4.1 23:10:58 10° NNW 23:15:37 69° NNE 23:15:37 69° NNE
Cosmos 2218 Rocket 4.1 23:18:42 52° SSW 23:20:17 73° W 23:26:42 10° N
Timation 1 Rocket 4.3 23:27:35 77° NNE 23:27:35 77° NNE 23:33:10 10° NNE
Cosmos 1727 Rocket 4.0 23:35:07 10° N 23:40:45 76° N 23:40:45 76° N
ARGOS 4.0 23:46:44 42° W 23:46:44 42° W 23:51:20 10° NNW
H-2A R/B 2.9 23:53:53 50° NNW 23:53:53 50° NNW 23:57:48 10° NNW
